Location: L�beck
(53.8752°N, 10.6787°E)
Time: 01:00:53
(UTC+02:00)

ISS - Visible Passes

Search period start: 22 October 2019 00:00
Search period end: 31 October 2019 23:00
Orbit: 411 x 421 km, 51.6° (Epoch: 21 October)

Date Brightness Start Highest point End Pass type
(mag) Time Alt. Az. Time Alt. Az. Time Alt. Az.
26 Oct -1.0 06:49:41 10° S 06:51:53 16° SE 06:54:05 10° ESE visible
27 Oct -0.8 05:02:15 10° SSE 05:03:30 12° SE 05:04:45 10° ESE visible
28 Oct -1.9 05:48:05 10° SW 05:51:01 28° SSE 05:53:58 10° E visible
29 Oct -1.6 05:01:14 17° S 05:02:33 21° SSE 05:05:11 10° E visible
30 Oct -1.0 04:14:50 15° SE 04:14:50 15° SE 04:16:11 10° ESE visible
30 Oct -2.8 05:47:44 15° SW 05:50:15 43° SSE 05:53:28 10° E visible
31 Oct -2.6 05:01:13 33° S 05:01:41 34° SSE 05:04:47 10° E visible
31 Oct -3.3 06:34:48 10° WSW 06:38:08 59° S 06:41:28 10° E visible
